Weather History for Three Rivers, MI

Change the Weather History Date:

Friday, September 20, 2013

  Actual Average Record
Temperature  
Mean Temperature 68 °F -  
Max Temperature 73 °F 73 °F 88 °F (1978)
Min Temperature 64 °F 51 °F 32 °F (1962)
Cooling Degree Days 4    
Growing Degree Days 18 (Base 50)    
Moisture  
Dew Point 67 °F    
Average Humidity 86    
Maximum Humidity 93    
Minimum Humidity 77    
Precipitation  
Precipitation 0.00 in - - ()
Sea Level Pressure  
Sea Level Pressure 29.83 in    
Wind  
Wind Speed 8 mph (SW)    
Max Wind Speed 13 mph    
Max Gust Speed 18 mph    
Visibility 8 miles    
Events Rain    
Averages and records for this station are not official NWS values.
T = Trace of Precipitation, MM = Missing Value Source: NWS Daily Summary

Daily Weather History Graph

Daily Weather History Graph

Search for Another Location

Airport:

Trip Planner

Search our weather history database for the weather conditions in past years. The results will help you decide how hot, cold, wet, or windy it might be!

Date:

Astronomy

Sep. 20, 2013 Rise Set
Actual Time 7:27 AM EDT 7:42 PM EDT
Civil Twilight 7:00 AM EDT 8:10 PM EDT
Nautical Twilight 6:27 AM EDT 8:43 PM EDT
Astronomical Twilight 5:53 AM EDT 9:16 PM EDT
Moon 8:13 PM EDT (9/20) 8:43 AM EDT (9/20)
Length of Visible Light 13h 10m
Length of Day
12h 14m
Full, 98% of the Moon is Illuminated
Sep 20
Full
Sep 26
Last Quarter
Oct 4
New
Oct 11
First Quarter
Oct 18
Full

Hourly Weather History & Observations

Time (EDT) Temp. Dew Point Humidity Pressure Visibility Wind Dir Wind Speed Gust Speed Precip Events Conditions
12:15 AM 70.7 °F 67.3 °F 89% 29.89 in 7.0 mi South 9.2 mph - N/A   Clear
12:35 AM 70.9 °F 67.6 °F 89% 29.89 in 7.0 mi South 9.2 mph - N/A   Clear
12:55 AM 71.2 °F 68.0 °F 89% 29.90 in 7.0 mi South 9.2 mph - N/A   Mostly Cloudy
1:15 AM 71.6 °F 68.2 °F 89% 29.89 in 5.0 mi SSW 9.2 mph - N/A   Mostly Cloudy
1:35 AM 72.0 °F 68.7 °F 89% 29.89 in 5.0 mi South 10.4 mph - N/A   Mostly Cloudy
1:54 AM 72.5 °F 68.9 °F 88% 29.89 in 5.0 mi SSW 9.2 mph - N/A Rain Light Rain
2:15 AM 72.7 °F 69.1 °F 88% 29.88 in 5.0 mi SSW 8.1 mph - N/A Rain Light Rain
2:34 AM 72.9 °F 69.4 °F 89% 29.88 in 5.0 mi SSW 10.4 mph - N/A   Scattered Clouds
2:55 AM 73.4 °F 69.4 °F 87% 29.86 in 7.0 mi SSW 9.2 mph - N/A   Scattered Clouds
3:15 AM 73.4 °F 69.4 °F 87% 29.85 in 7.0 mi SSW 6.9 mph - N/A   Clear
3:34 AM 73.0 °F 69.4 °F 88% 29.85 in 7.0 mi SW 5.8 mph - N/A   Clear
3:55 AM 73.4 °F 69.4 °F 87% 29.85 in 7.0 mi SW 8.1 mph - N/A   Scattered Clouds
4:15 AM 73.8 °F 69.8 °F 87% 29.85 in 7.0 mi SSW 8.1 mph - N/A   Scattered Clouds
4:34 AM 73.8 °F 69.8 °F 87% 29.85 in 7.0 mi SW 9.2 mph - N/A   Mostly Cloudy
4:55 AM 73.8 °F 69.8 °F 87% 29.84 in 7.0 mi SW 9.2 mph - N/A   Mostly Cloudy
5:15 AM 73.4 °F 69.4 °F 87% 29.83 in 7.0 mi SSW 9.2 mph - N/A   Scattered Clouds
5:35 AM 73.4 °F 69.8 °F 88% 29.83 in 7.0 mi SSW 12.7 mph - N/A   Scattered Clouds
5:55 AM 73.0 °F 69.4 °F 88% 29.82 in 7.0 mi SSW 10.4 mph - N/A   Clear
6:15 AM 72.7 °F 69.3 °F 89% 29.82 in 7.0 mi SSW 10.4 mph 17.3 mph N/A   Clear
6:35 AM 72.7 °F 69.4 °F 90% 29.82 in 7.0 mi SSW 10.4 mph - N/A   Scattered Clouds
6:55 AM 73.0 °F 69.4 °F 88% 29.82 in 7.0 mi SSW 10.4 mph 18.4 mph N/A   Mostly Cloudy
7:15 AM 72.9 °F 69.4 °F 89% 29.83 in 7.0 mi WSW 9.2 mph 16.1 mph N/A   Mostly Cloudy
7:35 AM 72.5 °F 69.1 °F 89% 29.83 in 5.0 mi WSW 8.1 mph - N/A   Scattered Clouds
7:55 AM 72.3 °F 69.3 °F 90% 29.84 in 4.0 mi SW 5.8 mph - N/A   Clear
8:15 AM 72.5 °F 69.3 °F 90% 29.85 in 5.0 mi SW 5.8 mph - N/A   Scattered Clouds
8:35 AM 72.5 °F 69.1 °F 89% 29.85 in 5.0 mi SW 6.9 mph - N/A   Mostly Cloudy
8:55 AM 72.9 °F 69.1 °F 88% 29.85 in 7.0 mi SW 5.8 mph - N/A   Mostly Cloudy
9:15 AM 73.4 °F 67.3 °F 81% 29.85 in 10.0 mi WSW 10.4 mph - N/A   Mostly Cloudy
9:35 AM 73.9 °F 67.3 °F 80% 29.85 in 10.0 mi West 6.9 mph - N/A   Scattered Clouds
9:54 AM 73.6 °F 66.2 °F 78% 29.86 in 10.0 mi West 10.4 mph 16.1 mph N/A   Mostly Cloudy
10:15 AM 73.0 °F 66.2 °F 79% 29.86 in 10.0 mi WSW 9.2 mph - N/A   Overcast
10:35 AM 72.5 °F 65.7 °F 79% 29.86 in 10.0 mi WSW 8.1 mph - N/A Rain Light Rain
10:54 AM 72.0 °F 65.5 °F 80% 29.85 in 10.0 mi WSW 6.9 mph - N/A   Overcast
11:15 AM 73.0 °F 65.7 °F 78% 29.85 in 10.0 mi West 10.4 mph - N/A   Mostly Cloudy
11:34 AM 72.3 °F 65.1 °F 78% 29.85 in 10.0 mi WSW 8.1 mph - N/A   Mostly Cloudy
11:55 AM 72.5 °F 64.9 °F 77% 29.85 in 10.0 mi West 8.1 mph - N/A   Mostly Cloudy
12:15 PM 72.9 °F 65.5 °F 78% 29.85 in 10.0 mi West 9.2 mph - N/A   Scattered Clouds
12:34 PM 72.1 °F 64.9 °F 78% 29.85 in 10.0 mi SW 6.9 mph - N/A   Overcast
12:55 PM 72.3 °F 65.8 °F 80% 29.85 in 10.0 mi SW 9.2 mph - N/A   Overcast
1:14 PM 72.3 °F 65.3 °F 78% 29.85 in 10.0 mi SW 10.4 mph - N/A   Overcast
1:35 PM 72.0 °F 65.7 °F 80% 29.84 in 10.0 mi SW 5.8 mph - N/A   Overcast
1:55 PM 72.5 °F 65.7 °F 79% 29.83 in 10.0 mi SW 8.1 mph - N/A   Overcast
2:14 PM 71.6 °F 65.3 °F 80% 29.83 in 10.0 mi SW 8.1 mph - N/A   Overcast
2:35 PM 71.6 °F 65.5 °F 81% 29.82 in 10.0 mi SW 9.2 mph - N/A   Overcast
2:55 PM 70.7 °F 65.7 °F 84% 29.82 in 10.0 mi SSW 6.9 mph - N/A Rain Light Rain
3:15 PM 70.7 °F 66.6 °F 87% 29.82 in 10.0 mi SW 5.8 mph - N/A Rain Light Rain
3:35 PM 70.0 °F 66.2 °F 88% 29.82 in 10.0 mi SW 6.9 mph - N/A   Overcast
3:55 PM 69.6 °F 66.6 °F 90% 29.81 in 3.0 mi SW 6.9 mph - N/A Rain Light Rain
4:15 PM 70.2 °F 67.1 °F 90% 29.80 in 10.0 mi SW 6.9 mph - N/A   Overcast
4:35 PM 70.7 °F 67.1 °F 88% 29.80 in 10.0 mi SW 4.6 mph - N/A   Overcast
4:55 PM 71.1 °F 67.1 °F 87% 29.79 in 10.0 mi SW 4.6 mph - N/A   Overcast
5:15 PM 71.2 °F 67.1 °F 87% 29.79 in 10.0 mi SW 4.6 mph - N/A   Overcast
5:35 PM 71.1 °F 67.1 °F 87% 29.79 in 10.0 mi SSW 5.8 mph - N/A   Overcast
5:54 PM 70.9 °F 67.1 °F 88% 29.79 in 10.0 mi SSW 5.8 mph - N/A   Overcast
6:15 PM 71.1 °F 67.1 °F 87% 29.78 in 10.0 mi SW 5.8 mph - N/A   Mostly Cloudy
6:35 PM 70.9 °F 67.1 °F 88% 29.78 in 10.0 mi SSW 5.8 mph - N/A   Mostly Cloudy
6:54 PM 70.9 °F 67.1 °F 88% 29.78 in 10.0 mi NW 5.8 mph - N/A Rain Rain
7:15 PM 69.3 °F 66.2 °F 90% 29.77 in 10.0 mi WSW 4.6 mph - N/A   Overcast
7:35 PM 67.6 °F 64.4 °F 89% 29.77 in 10.0 mi SW 3.5 mph - N/A   Scattered Clouds
7:54 PM 67.1 °F 64.6 °F 92% 29.77 in 7.0 mi SSW 3.5 mph - N/A   Mostly Cloudy
8:15 PM 67.1 °F 64.8 °F 92% 29.78 in 7.0 mi Calm Calm - N/A   Mostly Cloudy
8:35 PM 67.5 °F 65.3 °F 93% 29.78 in 7.0 mi Calm Calm - N/A   Overcast
8:55 PM 67.5 °F 65.3 °F 93% 29.78 in 5.0 mi Calm Calm - N/A   Mostly Cloudy
9:15 PM 67.8 °F 65.7 °F 93% 29.79 in 7.0 mi WSW 3.5 mph - N/A   Scattered Clouds
9:35 PM 68.0 °F 64.8 °F 89% 29.79 in 10.0 mi West 6.9 mph - N/A   Clear
9:55 PM 67.1 °F 63.5 °F 88% 29.79 in 10.0 mi West 6.9 mph - N/A   Clear
10:15 PM 66.6 °F 62.8 °F 88% 29.80 in 10.0 mi WNW 6.9 mph - N/A   Scattered Clouds
10:35 PM 66.2 °F 62.6 °F 88% 29.79 in 10.0 mi WNW 4.6 mph - N/A   Mostly Cloudy
10:55 PM 65.7 °F 61.9 °F 88% 29.79 in 10.0 mi West 5.8 mph - N/A   Overcast
11:15 PM 65.3 °F 61.0 °F 86% 29.79 in 10.0 mi West 5.8 mph - N/A   Overcast
11:34 PM 64.8 °F 60.3 °F 85% 29.79 in 10.0 mi West 5.8 mph - N/A   Mostly Cloudy
11:55 PM 64.8 °F 60.3 °F 85% 29.80 in 10.0 mi WNW 5.8 mph - N/A   Overcast